Year,Month,Day,Hour,Minute,Value (Times are PST for temperature in C)
2016,08,18,00,00,16.30
2016,08,18,00,01,16.20
2016,08,18,00,02,16.20
2016,08,18,00,03,16.20
2016,08,18,00,04,16.10
2016,08,18,00,05,16.10
2016,08,18,00,06,16.10
2016,08,18,00,07,16.00
2016,08,18,00,08,16.00
2016,08,18,00,09,15.90
2016,08,18,00,10,15.80
2016,08,18,00,11,15.80
2016,08,18,00,12,15.70
2016,08,18,00,13,15.70
2016,08,18,00,14,15.70
2016,08,18,00,15,15.60
2016,08,18,00,16,15.50
2016,08,18,00,17,15.50
2016,08,18,00,18,15.40
2016,08,18,00,19,15.40
2016,08,18,00,20,15.30
2016,08,18,00,21,15.30
2016,08,18,00,22,15.20
2016,08,18,00,23,15.20
2016,08,18,00,24,15.10
2016,08,18,00,25,15.10
2016,08,18,00,26,15.00
2016,08,18,00,27,15.00
2016,08,18,00,28,15.00
2016,08,18,00,29,15.00
2016,08,18,00,30,15.00
2016,08,18,00,31,15.00
2016,08,18,00,32,14.90
2016,08,18,00,33,14.80
2016,08,18,00,34,14.80
2016,08,18,00,35,14.80
2016,08,18,00,36,14.70
2016,08,18,00,37,14.70
2016,08,18,00,38,14.60
2016,08,18,00,39,14.60
2016,08,18,00,40,14.50
2016,08,18,00,41,14.50
2016,08,18,00,42,14.40
2016,08,18,00,43,14.40
2016,08,18,00,44,14.30
2016,08,18,00,45,14.30
2016,08,18,00,46,14.30
2016,08,18,00,47,14.20
2016,08,18,00,48,14.20
2016,08,18,00,49,14.20
2016,08,18,00,50,14.20
2016,08,18,00,51,14.10
2016,08,18,00,52,14.10
2016,08,18,00,53,14.10
2016,08,18,00,54,14.00
2016,08,18,00,55,14.00
2016,08,18,00,56,14.00
2016,08,18,00,57,14.00
2016,08,18,00,58,13.90
2016,08,18,00,59,13.90
2016,08,18,01,00,13.90
2016,08,18,01,01,13.90
2016,08,18,01,02,13.90
2016,08,18,01,03,13.90
2016,08,18,01,04,13.80
2016,08,18,01,05,13.80
2016,08,18,01,06,13.80
2016,08,18,01,07,13.80
2016,08,18,01,08,13.80
2016,08,18,01,09,13.80
2016,08,18,01,10,13.80
2016,08,18,01,11,13.80
2016,08,18,01,12,13.80
2016,08,18,01,13,13.80
2016,08,18,01,14,13.80
2016,08,18,01,15,13.80
2016,08,18,01,16,13.80
2016,08,18,01,17,13.80
2016,08,18,01,18,13.80
2016,08,18,01,19,13.80
2016,08,18,01,20,13.80
2016,08,18,01,21,13.80
2016,08,18,01,22,13.80
2016,08,18,01,23,13.80
2016,08,18,01,24,13.80
2016,08,18,01,25,13.80
2016,08,18,01,26,13.80
2016,08,18,01,27,13.70
2016,08,18,01,28,13.70
2016,08,18,01,29,13.70
2016,08,18,01,30,13.70
2016,08,18,01,31,13.70
2016,08,18,01,32,13.70
2016,08,18,01,33,13.70
2016,08,18,01,34,13.70
2016,08,18,01,35,13.70
2016,08,18,01,36,13.70
2016,08,18,01,37,13.60
2016,08,18,01,38,13.60
2016,08,18,01,39,13.60
2016,08,18,01,40,13.60
2016,08,18,01,41,13.60
2016,08,18,01,42,13.60
2016,08,18,01,43,13.60
2016,08,18,01,44,13.60
2016,08,18,01,45,13.50
2016,08,18,01,46,13.50
2016,08,18,01,47,13.50
2016,08,18,01,48,13.50
2016,08,18,01,49,13.50
2016,08,18,01,50,13.50
2016,08,18,01,51,13.50
2016,08,18,01,52,13.60
2016,08,18,01,53,13.60
2016,08,18,01,54,13.60
2016,08,18,01,55,13.60
2016,08,18,01,56,13.60
2016,08,18,01,57,13.60
2016,08,18,01,58,13.60
2016,08,18,01,59,13.70
2016,08,18,02,00,13.70
2016,08,18,02,01,13.70
2016,08,18,02,02,13.70
2016,08,18,02,03,13.70
2016,08,18,02,04,13.70
2016,08,18,02,05,13.70
2016,08,18,02,06,13.70
2016,08,18,02,07,13.70
2016,08,18,02,08,13.70
2016,08,18,02,09,13.70
2016,08,18,02,10,13.70
2016,08,18,02,11,13.70
2016,08,18,02,12,13.70
2016,08,18,02,13,13.70
2016,08,18,02,14,13.70
2016,08,18,02,15,13.70
2016,08,18,02,16,13.70
2016,08,18,02,17,13.70
2016,08,18,02,18,13.70
2016,08,18,02,19,13.70
2016,08,18,02,20,13.70
2016,08,18,02,21,13.70
2016,08,18,02,22,13.70
2016,08,18,02,23,13.70
2016,08,18,02,24,13.70
2016,08,18,02,25,13.70
2016,08,18,02,26,13.70
2016,08,18,02,27,13.70
2016,08,18,02,28,13.70
2016,08,18,02,29,13.70
2016,08,18,02,30,13.70
2016,08,18,02,31,13.70
2016,08,18,02,32,13.70
2016,08,18,02,33,13.70
2016,08,18,02,34,13.70
2016,08,18,02,35,13.70
2016,08,18,02,36,13.70
2016,08,18,02,37,13.70
2016,08,18,02,38,13.70
2016,08,18,02,39,13.80
2016,08,18,02,40,13.80
2016,08,18,02,41,13.80
2016,08,18,02,42,13.70
2016,08,18,02,43,13.70
2016,08,18,02,44,13.70
2016,08,18,02,45,13.70
2016,08,18,02,46,13.70
2016,08,18,02,47,13.70
2016,08,18,02,48,13.70
2016,08,18,02,49,13.70
2016,08,18,02,50,13.70
2016,08,18,02,51,13.70
2016,08,18,02,52,13.70
2016,08,18,02,53,13.70
2016,08,18,02,54,13.70
2016,08,18,02,55,13.70
2016,08,18,02,56,13.70
2016,08,18,02,57,13.70
2016,08,18,02,58,13.70
2016,08,18,02,59,13.70
2016,08,18,03,00,13.70
2016,08,18,03,01,13.70
2016,08,18,03,02,13.70
2016,08,18,03,03,13.70
2016,08,18,03,04,13.70
2016,08,18,03,05,13.70
2016,08,18,03,06,13.70
2016,08,18,03,07,13.70
2016,08,18,03,08,13.70
2016,08,18,03,09,13.70
2016,08,18,03,10,13.70
2016,08,18,03,11,13.70
2016,08,18,03,12,13.60
2016,08,18,03,13,13.60
2016,08,18,03,14,13.60
2016,08,18,03,15,13.60
2016,08,18,03,16,13.60
2016,08,18,03,17,13.60
2016,08,18,03,18,13.60
2016,08,18,03,19,13.60
2016,08,18,03,20,13.60
2016,08,18,03,21,13.60
2016,08,18,03,22,13.60
2016,08,18,03,23,13.60
2016,08,18,03,24,13.50
2016,08,18,03,25,13.50
2016,08,18,03,26,13.50
2016,08,18,03,27,13.50
2016,08,18,03,28,13.50
2016,08,18,03,29,13.50
2016,08,18,03,30,13.50
2016,08,18,03,31,13.40
2016,08,18,03,32,13.40
2016,08,18,03,33,13.40
2016,08,18,03,34,13.40
2016,08,18,03,35,13.40
2016,08,18,03,36,13.40
2016,08,18,03,37,13.40
2016,08,18,03,38,13.40
2016,08,18,03,39,13.40
2016,08,18,03,40,13.40
2016,08,18,03,41,13.40
2016,08,18,03,42,13.40
2016,08,18,03,43,13.40
2016,08,18,03,44,13.40
2016,08,18,03,45,13.40
2016,08,18,03,46,13.40
2016,08,18,03,47,13.40
2016,08,18,03,48,13.40
2016,08,18,03,49,13.40
2016,08,18,03,50,13.30
2016,08,18,03,51,13.30
2016,08,18,03,52,13.30
2016,08,18,03,53,13.30
2016,08,18,03,54,13.30
2016,08,18,03,55,13.30
2016,08,18,03,56,13.30
2016,08,18,03,57,13.30
2016,08,18,03,58,13.30
2016,08,18,03,59,13.30
2016,08,18,04,00,13.30
2016,08,18,04,01,13.30
2016,08,18,04,02,13.30
2016,08,18,04,03,13.30
2016,08,18,04,04,13.30
2016,08,18,04,05,13.30
2016,08,18,04,06,13.30
2016,08,18,04,07,13.30
2016,08,18,04,08,13.30
2016,08,18,04,09,13.30
2016,08,18,04,10,13.30
2016,08,18,04,11,13.30
2016,08,18,04,12,13.30
2016,08,18,04,13,13.30
2016,08,18,04,14,13.30
2016,08,18,04,15,13.30
2016,08,18,04,16,13.30
2016,08,18,04,17,13.30
2016,08,18,04,18,13.30
2016,08,18,04,19,13.30
2016,08,18,04,20,13.30
2016,08,18,04,21,13.20
2016,08,18,04,22,13.20
2016,08,18,04,23,13.20
2016,08,18,04,24,13.20
2016,08,18,04,25,13.20
2016,08,18,04,26,13.20
2016,08,18,04,27,13.20
2016,08,18,04,28,13.20
2016,08,18,04,29,13.20
2016,08,18,04,30,13.20
2016,08,18,04,31,13.20
2016,08,18,04,32,13.20
2016,08,18,04,33,13.20
2016,08,18,04,34,13.20
2016,08,18,04,35,13.20
2016,08,18,04,36,13.20
2016,08,18,04,37,13.20
2016,08,18,04,38,13.20
2016,08,18,04,39,13.20
2016,08,18,04,40,13.20
2016,08,18,04,41,13.20
2016,08,18,04,42,13.20
2016,08,18,04,43,13.20
2016,08,18,04,44,13.20
2016,08,18,04,45,13.20
2016,08,18,04,46,13.20
2016,08,18,04,47,13.20
2016,08,18,04,48,13.20
2016,08,18,04,49,13.20
2016,08,18,04,50,13.30
2016,08,18,04,51,13.30
2016,08,18,04,52,13.30
2016,08,18,04,53,13.30
2016,08,18,04,54,13.30
2016,08,18,04,55,13.30
2016,08,18,04,56,13.30
2016,08,18,04,57,13.30
2016,08,18,04,58,13.30
2016,08,18,04,59,13.30
2016,08,18,05,00,13.30
2016,08,18,05,01,13.30
2016,08,18,05,02,13.30
2016,08,18,05,03,13.30
2016,08,18,05,04,13.30
2016,08,18,05,05,13.30
2016,08,18,05,06,13.40
2016,08,18,05,07,13.40
2016,08,18,05,08,13.40
2016,08,18,05,09,13.50
2016,08,18,05,10,13.50
2016,08,18,05,11,13.50
2016,08,18,05,12,13.60
2016,08,18,05,13,13.60
2016,08,18,05,14,13.60
2016,08,18,05,15,13.60
2016,08,18,05,16,13.60
2016,08,18,05,17,13.60
2016,08,18,05,18,13.60
2016,08,18,05,19,13.60
2016,08,18,05,20,13.60
2016,08,18,05,21,13.60
2016,08,18,05,22,13.60
2016,08,18,05,23,13.60
2016,08,18,05,24,13.60
2016,08,18,05,25,13.60
2016,08,18,05,26,13.60
2016,08,18,05,27,13.60
2016,08,18,05,28,13.60
2016,08,18,05,29,13.60
2016,08,18,05,30,13.60
2016,08,18,05,31,13.60
2016,08,18,05,32,13.60
2016,08,18,05,33,13.60
2016,08,18,05,34,13.60
2016,08,18,05,35,13.60
2016,08,18,05,36,13.60
2016,08,18,05,37,13.60
2016,08,18,05,38,13.60
2016,08,18,05,39,13.60
2016,08,18,05,40,13.50
2016,08,18,05,41,13.50
2016,08,18,05,42,13.50
2016,08,18,05,43,13.50
2016,08,18,05,44,13.50
2016,08,18,05,45,13.50
2016,08,18,05,46,13.40
2016,08,18,05,47,13.40
2016,08,18,05,48,13.40
2016,08,18,05,49,13.40
2016,08,18,05,50,13.40
2016,08,18,05,51,13.40
2016,08,18,05,52,13.40
2016,08,18,05,53,13.30
2016,08,18,05,54,13.30
2016,08,18,05,55,13.30
2016,08,18,05,56,13.30
2016,08,18,05,57,13.20
2016,08,18,05,58,13.20
2016,08,18,05,59,13.20
2016,08,18,06,00,13.20
2016,08,18,06,01,13.20
2016,08,18,06,02,13.20
2016,08,18,06,03,13.20
2016,08,18,06,04,13.20
2016,08,18,06,05,13.20
2016,08,18,06,06,13.20
2016,08,18,06,07,13.20
2016,08,18,06,08,13.20
2016,08,18,06,09,13.20
2016,08,18,06,10,13.20
2016,08,18,06,11,13.20
2016,08,18,06,12,13.20
2016,08,18,06,13,13.20
2016,08,18,06,14,13.20
2016,08,18,06,15,13.20
2016,08,18,06,16,13.20
2016,08,18,06,17,13.20
2016,08,18,06,18,13.30
2016,08,18,06,19,13.30
2016,08,18,06,20,13.30
2016,08,18,06,21,13.30
2016,08,18,06,22,13.30
2016,08,18,06,23,13.30
2016,08,18,06,24,13.30
2016,08,18,06,25,13.30
2016,08,18,06,26,13.30
2016,08,18,06,27,13.30
2016,08,18,06,28,13.30
2016,08,18,06,29,13.30
2016,08,18,06,30,13.30
2016,08,18,06,31,13.30
2016,08,18,06,32,13.30
2016,08,18,06,33,13.30
2016,08,18,06,34,13.30
2016,08,18,06,35,13.30
2016,08,18,06,36,13.30
2016,08,18,06,37,13.30
2016,08,18,06,38,13.30
2016,08,18,06,39,13.30
2016,08,18,06,40,13.30
2016,08,18,06,41,13.30
2016,08,18,06,42,13.30
2016,08,18,06,43,13.30
2016,08,18,06,44,13.30
2016,08,18,06,45,13.30
2016,08,18,06,46,13.30
2016,08,18,06,47,13.30
2016,08,18,06,48,13.30
2016,08,18,06,49,13.30
2016,08,18,06,50,13.30
2016,08,18,06,51,13.30
2016,08,18,06,52,13.30
2016,08,18,06,53,13.40
2016,08,18,06,54,13.40
2016,08,18,06,55,13.50
2016,08,18,06,56,13.50
2016,08,18,06,57,13.60
2016,08,18,06,58,13.60
2016,08,18,06,59,13.70
2016,08,18,07,00,13.70
2016,08,18,07,01,13.70
2016,08,18,07,02,13.80
2016,08,18,07,03,13.80
2016,08,18,07,04,13.80
2016,08,18,07,05,13.80
2016,08,18,07,06,13.90
2016,08,18,07,07,13.90
2016,08,18,07,08,13.90
2016,08,18,07,09,14.00
2016,08,18,07,10,14.10
2016,08,18,07,11,14.10
2016,08,18,07,12,14.10
2016,08,18,07,13,14.20
2016,08,18,07,14,14.20
2016,08,18,07,15,14.20
2016,08,18,07,16,14.30
2016,08,18,07,17,14.30
2016,08,18,07,18,14.30
2016,08,18,07,19,14.30
2016,08,18,07,20,14.40
2016,08,18,07,21,14.40
2016,08,18,07,22,14.50
2016,08,18,07,23,14.50
2016,08,18,07,24,14.60
2016,08,18,07,25,14.60
2016,08,18,07,26,14.60
2016,08,18,07,27,14.60
2016,08,18,07,28,14.70
2016,08,18,07,29,14.70
2016,08,18,07,30,14.80
2016,08,18,07,31,14.80
2016,08,18,07,32,14.90
2016,08,18,07,33,15.00
2016,08,18,07,34,15.00
2016,08,18,07,35,15.00
2016,08,18,07,36,15.00
2016,08,18,07,37,15.10
2016,08,18,07,38,15.20
2016,08,18,07,39,15.30
2016,08,18,07,40,15.30
2016,08,18,07,41,15.40
2016,08,18,07,42,15.50
2016,08,18,07,43,15.60
2016,08,18,07,44,15.70
2016,08,18,07,45,15.70
2016,08,18,07,46,15.80
2016,08,18,07,47,15.90
2016,08,18,07,48,16.00
2016,08,18,07,49,16.00
2016,08,18,07,50,16.10
2016,08,18,07,51,16.10
2016,08,18,07,52,16.20
2016,08,18,07,53,16.30
2016,08,18,07,54,16.30
2016,08,18,07,55,16.40
2016,08,18,07,56,16.50
2016,08,18,07,57,16.60
2016,08,18,07,58,16.70
2016,08,18,07,59,16.80
2016,08,18,08,00,16.90
2016,08,18,08,01,17.00
2016,08,18,08,02,17.10
2016,08,18,08,03,17.30
2016,08,18,08,04,17.40
2016,08,18,08,05,17.50
2016,08,18,08,06,17.60
2016,08,18,08,07,17.70
2016,08,18,08,08,17.90
2016,08,18,08,09,18.00
2016,08,18,08,10,18.10
2016,08,18,08,11,18.30
2016,08,18,08,12,18.40
2016,08,18,08,13,18.50
2016,08,18,08,14,18.50
2016,08,18,08,15,18.60
2016,08,18,08,16,18.70
2016,08,18,08,17,18.80
2016,08,18,08,18,18.90
2016,08,18,08,19,18.90
2016,08,18,08,20,19.00
2016,08,18,08,21,19.10
2016,08,18,08,22,19.20
2016,08,18,08,23,19.20
2016,08,18,08,24,19.30
2016,08,18,08,25,19.40
2016,08,18,08,26,19.50
2016,08,18,08,27,19.60
2016,08,18,08,28,19.70
2016,08,18,08,29,19.80
2016,08,18,08,30,19.90
2016,08,18,08,31,20.00
2016,08,18,08,32,20.00
2016,08,18,08,33,20.20
2016,08,18,08,34,20.30
2016,08,18,08,35,20.40
2016,08,18,08,36,20.50
2016,08,18,08,37,20.60
2016,08,18,08,38,20.70
2016,08,18,08,39,20.80
2016,08,18,08,40,21.00
2016,08,18,08,41,21.10
2016,08,18,08,42,21.20
2016,08,18,08,43,21.30
2016,08,18,08,44,21.40
2016,08,18,08,45,21.50
2016,08,18,08,46,21.60
2016,08,18,08,47,21.70
2016,08,18,08,48,21.80
2016,08,18,08,49,21.90
2016,08,18,08,50,22.00
2016,08,18,08,51,22.10
2016,08,18,08,52,22.20
2016,08,18,08,53,22.20
2016,08,18,08,54,22.30
2016,08,18,08,55,22.40
2016,08,18,08,56,22.50
2016,08,18,08,57,22.50
2016,08,18,08,58,22.60
2016,08,18,08,59,22.60
2016,08,18,09,00,22.70
2016,08,18,09,01,22.70
2016,08,18,09,02,22.70
2016,08,18,09,03,22.70
2016,08,18,09,04,22.70
2016,08,18,09,05,22.70
2016,08,18,09,06,22.70
2016,08,18,09,07,22.60
2016,08,18,09,08,22.60
2016,08,18,09,09,22.70
2016,08,18,09,10,22.70
2016,08,18,09,11,22.80
2016,08,18,09,12,22.80
2016,08,18,09,13,22.90
2016,08,18,09,14,23.00
2016,08,18,09,15,23.10
2016,08,18,09,16,23.10
2016,08,18,09,17,23.20
2016,08,18,09,18,23.20
2016,08,18,09,19,23.20
2016,08,18,09,20,23.20
2016,08,18,09,21,23.30
2016,08,18,09,22,23.30
2016,08,18,09,23,23.30
2016,08,18,09,24,23.40
2016,08,18,09,25,23.40
2016,08,18,09,26,23.40
2016,08,18,09,27,23.40
2016,08,18,09,28,23.50
2016,08,18,09,29,23.50
2016,08,18,09,30,23.60
2016,08,18,09,31,23.60
2016,08,18,09,32,23.60
2016,08,18,09,33,23.70
2016,08,18,09,34,23.70
2016,08,18,09,35,23.80
2016,08,18,09,36,23.80
2016,08,18,09,37,23.80
2016,08,18,09,38,23.80
2016,08,18,09,39,23.90
2016,08,18,09,40,23.90
2016,08,18,09,41,23.90
2016,08,18,09,42,23.90
2016,08,18,09,43,23.90
2016,08,18,09,44,23.90
2016,08,18,09,45,23.90
2016,08,18,09,46,23.90
2016,08,18,09,47,24.00
2016,08,18,09,48,24.00
2016,08,18,09,49,24.00
2016,08,18,09,50,24.00
2016,08,18,09,51,24.00
2016,08,18,09,52,24.10
2016,08,18,09,53,24.10
2016,08,18,09,54,24.00
2016,08,18,09,55,23.90
2016,08,18,09,56,23.90
2016,08,18,09,57,23.90
2016,08,18,09,58,23.90
2016,08,18,09,59,23.90
2016,08,18,10,00,23.90
2016,08,18,10,01,24.00
2016,08,18,10,02,24.00
2016,08,18,10,03,23.90
2016,08,18,10,04,23.90
2016,08,18,10,05,23.90
2016,08,18,10,06,23.90
2016,08,18,10,07,23.90
2016,08,18,10,08,23.90
2016,08,18,10,09,23.90
2016,08,18,10,10,23.90
2016,08,18,10,11,23.90
2016,08,18,10,12,24.00
2016,08,18,10,13,23.90
2016,08,18,10,14,23.90
2016,08,18,10,15,23.90
2016,08,18,10,16,24.00
2016,08,18,10,17,24.00
2016,08,18,10,18,24.10
2016,08,18,10,19,24.10
2016,08,18,10,20,24.20
2016,08,18,10,21,24.30
2016,08,18,10,22,24.40
2016,08,18,10,23,24.50
2016,08,18,10,24,24.60
2016,08,18,10,25,24.60
2016,08,18,10,26,24.60
2016,08,18,10,27,24.60
2016,08,18,10,28,24.60
2016,08,18,10,29,24.60
2016,08,18,10,30,24.60
2016,08,18,10,31,24.50
2016,08,18,10,32,24.40
2016,08,18,10,33,24.30
2016,08,18,10,34,24.20
2016,08,18,10,35,24.10
2016,08,18,10,36,24.00
2016,08,18,10,37,23.90
2016,08,18,10,38,23.80
2016,08,18,10,39,23.80
2016,08,18,10,40,23.80
2016,08,18,10,41,23.90
2016,08,18,10,42,24.00
2016,08,18,10,43,24.00
2016,08,18,10,44,24.10
2016,08,18,10,45,24.10
2016,08,18,10,46,24.10
2016,08,18,10,47,24.20
2016,08,18,10,48,24.10
2016,08,18,10,49,24.10
2016,08,18,10,50,24.10
2016,08,18,10,51,24.10
2016,08,18,10,52,24.10
2016,08,18,10,53,24.10
2016,08,18,10,54,24.10
2016,08,18,10,55,24.10
2016,08,18,10,56,24.10
2016,08,18,10,57,24.20
2016,08,18,10,58,24.30
2016,08,18,10,59,24.40
2016,08,18,11,00,24.40
2016,08,18,11,01,24.50
2016,08,18,11,02,24.60
2016,08,18,11,03,24.60
2016,08,18,11,04,24.60
2016,08,18,11,05,24.80
2016,08,18,11,06,24.80
2016,08,18,11,07,24.80
2016,08,18,11,08,24.90
2016,08,18,11,09,24.90
2016,08,18,11,10,25.00
2016,08,18,11,11,25.10
2016,08,18,11,12,25.20
2016,08,18,11,13,25.20
2016,08,18,11,14,25.20
2016,08,18,11,15,25.20
2016,08,18,11,16,25.20
2016,08,18,11,17,25.30
2016,08,18,11,18,25.40
2016,08,18,11,19,25.40
2016,08,18,11,20,25.40
2016,08,18,11,21,25.40
2016,08,18,11,22,25.40
2016,08,18,11,23,25.50
2016,08,18,11,24,25.60
2016,08,18,11,25,25.70
2016,08,18,11,26,25.80
2016,08,18,11,27,25.90
2016,08,18,11,28,25.90
2016,08,18,11,29,26.00
2016,08,18,11,30,26.10
2016,08,18,11,31,26.20
2016,08,18,11,32,26.30
2016,08,18,11,33,26.40
2016,08,18,11,34,26.40
2016,08,18,11,35,26.50
2016,08,18,11,36,26.50
2016,08,18,11,37,26.60
2016,08,18,11,38,26.70
2016,08,18,11,39,26.80
2016,08,18,11,40,26.90
2016,08,18,11,41,27.00
2016,08,18,11,42,27.10
2016,08,18,11,43,27.20
2016,08,18,11,44,27.30
2016,08,18,11,45,27.40
2016,08,18,11,46,27.40
2016,08,18,11,47,27.50
2016,08,18,11,48,27.50
2016,08,18,11,49,27.60
2016,08,18,11,50,27.60
2016,08,18,11,51,27.60
2016,08,18,11,52,27.50
2016,08,18,11,53,27.50
2016,08,18,11,54,27.40
2016,08,18,11,55,27.40
2016,08,18,11,56,27.30
2016,08,18,11,57,27.30
2016,08,18,11,58,27.20
2016,08,18,11,59,27.20
2016,08,18,12,00,27.20
2016,08,18,12,01,27.30
2016,08,18,12,02,27.20
2016,08,18,12,03,27.20
2016,08,18,12,04,27.20
2016,08,18,12,05,27.20
2016,08,18,12,06,27.20
2016,08,18,12,07,27.20
2016,08,18,12,08,27.20
2016,08,18,12,09,27.20
2016,08,18,12,10,27.20
2016,08,18,12,11,27.30
2016,08,18,12,12,27.30
2016,08,18,12,13,27.30
2016,08,18,12,14,27.30
2016,08,18,12,15,27.40
2016,08,18,12,16,27.40
2016,08,18,12,17,27.30
2016,08,18,12,18,27.30
2016,08,18,12,19,27.40
2016,08,18,12,20,27.40
2016,08,18,12,21,27.50
2016,08,18,12,22,27.50
2016,08,18,12,23,27.60
2016,08,18,12,24,27.70
2016,08,18,12,25,27.70
2016,08,18,12,26,27.70
2016,08,18,12,27,27.80
2016,08,18,12,28,27.80
2016,08,18,12,29,27.90
2016,08,18,12,30,27.90
2016,08,18,12,31,28.00
2016,08,18,12,32,28.10
2016,08,18,12,33,28.10
2016,08,18,12,34,28.10
2016,08,18,12,35,28.10
2016,08,18,12,36,28.10
2016,08,18,12,37,28.00
2016,08,18,12,38,27.80
2016,08,18,12,39,27.50
2016,08,18,12,40,27.30
2016,08,18,12,41,27.10
2016,08,18,12,42,26.90
2016,08,18,12,43,26.80
2016,08,18,12,44,26.70
2016,08,18,12,45,26.70
2016,08,18,12,46,26.70
2016,08,18,12,47,26.70
2016,08,18,12,48,26.80
2016,08,18,12,49,26.90
2016,08,18,12,50,27.00
2016,08,18,12,51,26.90
2016,08,18,12,52,27.00
2016,08,18,12,53,27.10
2016,08,18,12,54,27.20
2016,08,18,12,55,27.30
2016,08,18,12,56,27.30
2016,08,18,12,57,27.30
2016,08,18,12,58,27.30
2016,08,18,12,59,27.40
2016,08,18,13,00,27.40
2016,08,18,13,01,27.40
2016,08,18,13,02,27.50
2016,08,18,13,03,27.50
2016,08,18,13,04,27.50
2016,08,18,13,05,27.50
2016,08,18,13,06,27.50
2016,08,18,13,07,27.60
2016,08,18,13,08,27.70
2016,08,18,13,09,27.70
2016,08,18,13,10,27.80
2016,08,18,13,11,27.90
2016,08,18,13,12,27.90
2016,08,18,13,13,28.00
2016,08,18,13,14,28.10
2016,08,18,13,15,28.20
2016,08,18,13,16,28.20
2016,08,18,13,17,28.10
2016,08,18,13,18,28.10
2016,08,18,13,19,28.10
2016,08,18,13,20,28.20
2016,08,18,13,21,28.30
2016,08,18,13,22,28.30
2016,08,18,13,23,28.40
2016,08,18,13,24,28.40
2016,08,18,13,25,28.40
2016,08,18,13,26,28.50
2016,08,18,13,27,28.60
2016,08,18,13,28,28.50
2016,08,18,13,29,28.30
2016,08,18,13,30,28.30
2016,08,18,13,31,28.30
2016,08,18,13,32,28.30
2016,08,18,13,33,28.40
2016,08,18,13,34,28.50
2016,08,18,13,35,28.50
2016,08,18,13,36,28.50
2016,08,18,13,37,28.60
2016,08,18,13,38,28.70
2016,08,18,13,39,28.70
2016,08,18,13,40,28.60
2016,08,18,13,41,28.70
2016,08,18,13,42,28.60
2016,08,18,13,43,28.60
2016,08,18,13,44,28.60
2016,08,18,13,45,28.50
2016,08,18,13,46,28.40
2016,08,18,13,47,28.40
2016,08,18,13,48,28.40
2016,08,18,13,49,28.40
2016,08,18,13,50,28.40
2016,08,18,13,51,28.50
2016,08,18,13,52,28.70
2016,08,18,13,53,28.70
2016,08,18,13,54,28.80
2016,08,18,13,55,28.90
2016,08,18,13,56,28.90
2016,08,18,13,57,28.90
2016,08,18,13,58,29.00
2016,08,18,13,59,29.00
2016,08,18,14,00,29.10
2016,08,18,14,01,29.10
2016,08,18,14,02,29.10
2016,08,18,14,03,29.10
2016,08,18,14,04,29.20
2016,08,18,14,05,29.20
2016,08,18,14,06,29.30
2016,08,18,14,07,29.30
2016,08,18,14,08,29.40
2016,08,18,14,09,29.40
2016,08,18,14,10,29.40
2016,08,18,14,11,29.30
2016,08,18,14,12,29.20
2016,08,18,14,13,29.10
2016,08,18,14,14,29.00
2016,08,18,14,15,29.00
2016,08,18,14,16,29.00
2016,08,18,14,17,29.00
2016,08,18,14,18,28.90
2016,08,18,14,19,28.90
2016,08,18,14,20,28.90
2016,08,18,14,21,28.90
2016,08,18,14,22,28.90
2016,08,18,14,23,28.90
2016,08,18,14,24,29.00
2016,08,18,14,25,29.00
2016,08,18,14,26,29.00
2016,08,18,14,27,29.00
2016,08,18,14,28,29.00
2016,08,18,14,29,29.10
2016,08,18,14,30,29.10
2016,08,18,14,31,29.20
2016,08,18,14,32,29.30
2016,08,18,14,33,29.40
2016,08,18,14,34,29.50
2016,08,18,14,35,29.60
2016,08,18,14,36,29.60
2016,08,18,14,37,29.60
2016,08,18,14,38,29.50
2016,08,18,14,39,29.40
2016,08,18,14,40,29.40
2016,08,18,14,41,29.30
2016,08,18,14,42,29.10
2016,08,18,14,43,29.00
2016,08,18,14,44,28.90
2016,08,18,14,45,28.90
2016,08,18,14,46,29.00
2016,08,18,14,47,29.00
2016,08,18,14,48,29.00
2016,08,18,14,49,29.10
2016,08,18,14,50,29.10
2016,08,18,14,51,29.20
2016,08,18,14,52,29.20
2016,08,18,14,53,29.20
2016,08,18,14,54,29.20
2016,08,18,14,55,29.30
2016,08,18,14,56,29.30
2016,08,18,14,57,29.40
2016,08,18,14,58,29.40
2016,08,18,14,59,29.50
2016,08,18,15,00,29.60
2016,08,18,15,01,29.70
2016,08,18,15,02,29.80
2016,08,18,15,03,29.80
2016,08,18,15,04,29.90
2016,08,18,15,05,29.90
2016,08,18,15,06,29.90
2016,08,18,15,07,29.90
2016,08,18,15,08,29.80
2016,08,18,15,09,29.80
2016,08,18,15,10,29.80
2016,08,18,15,11,29.80
2016,08,18,15,12,29.80
2016,08,18,15,13,29.90
2016,08,18,15,14,29.90
2016,08,18,15,15,29.80
2016,08,18,15,16,29.80
2016,08,18,15,17,29.70
2016,08,18,15,18,29.80
2016,08,18,15,19,29.80
2016,08,18,15,20,30.00
2016,08,18,15,21,30.10
2016,08,18,15,22,30.10
2016,08,18,15,23,30.20
2016,08,18,15,24,30.20
2016,08,18,15,25,30.30
2016,08,18,15,26,30.30
2016,08,18,15,27,30.30
2016,08,18,15,28,30.30
2016,08,18,15,29,30.30
2016,08,18,15,30,30.20
2016,08,18,15,31,30.20
2016,08,18,15,32,30.10
2016,08,18,15,33,30.00
2016,08,18,15,34,30.00
2016,08,18,15,35,29.90
2016,08,18,15,36,30.00
2016,08,18,15,37,30.00
2016,08,18,15,38,30.10
2016,08,18,15,39,30.10
2016,08,18,15,40,30.10
2016,08,18,15,41,30.10
2016,08,18,15,42,30.10
2016,08,18,15,43,30.10
2016,08,18,15,44,30.10
2016,08,18,15,45,30.20
2016,08,18,15,46,30.30
2016,08,18,15,47,30.30
2016,08,18,15,48,30.30
2016,08,18,15,49,30.30
2016,08,18,15,50,30.40
2016,08,18,15,51,30.40
2016,08,18,15,52,30.50
2016,08,18,15,53,30.60
2016,08,18,15,54,30.60
2016,08,18,15,55,30.60
2016,08,18,15,56,30.60
2016,08,18,15,57,30.60
2016,08,18,15,58,30.60
2016,08,18,15,59,30.60
2016,08,18,16,00,30.60
2016,08,18,16,01,30.60
2016,08,18,16,02,30.70
2016,08,18,16,03,30.70
2016,08,18,16,04,30.70
2016,08,18,16,05,30.70
2016,08,18,16,06,30.70
2016,08,18,16,07,30.70
2016,08,18,16,08,30.80
2016,08,18,16,09,30.80
2016,08,18,16,10,30.90
2016,08,18,16,11,31.00
2016,08,18,16,12,31.10
2016,08,18,16,13,31.10
2016,08,18,16,14,31.20
2016,08,18,16,15,31.10
2016,08,18,16,16,31.00
2016,08,18,16,17,30.80
2016,08,18,16,18,30.70
2016,08,18,16,19,30.70
2016,08,18,16,20,30.60
2016,08,18,16,21,30.60
2016,08,18,16,22,30.60
2016,08,18,16,23,30.60
2016,08,18,16,24,30.60
2016,08,18,16,25,30.70
2016,08,18,16,26,30.70
2016,08,18,16,27,30.80
2016,08,18,16,28,30.70
2016,08,18,16,29,30.60
2016,08,18,16,30,30.50
2016,08,18,16,31,30.40
2016,08,18,16,32,30.40
2016,08,18,16,33,30.40
2016,08,18,16,34,30.40
2016,08,18,16,35,30.40
2016,08,18,16,36,30.50
2016,08,18,16,37,30.60
2016,08,18,16,38,30.70
2016,08,18,16,39,30.80
2016,08,18,16,40,30.90
2016,08,18,16,41,30.90
2016,08,18,16,42,31.00
2016,08,18,16,43,31.20
2016,08,18,16,44,31.20
2016,08,18,16,45,31.40
2016,08,18,16,46,31.50
2016,08,18,16,47,31.60
2016,08,18,16,48,31.70
2016,08,18,16,49,31.80
2016,08,18,16,50,31.80
2016,08,18,16,51,31.80
2016,08,18,16,52,31.80
2016,08,18,16,53,31.70
2016,08,18,16,54,31.60
2016,08,18,16,55,31.40
2016,08,18,16,56,31.30
2016,08,18,16,57,31.20
2016,08,18,16,58,31.10
2016,08,18,16,59,30.90
2016,08,18,17,00,30.90
2016,08,18,17,01,30.90
2016,08,18,17,02,30.90
2016,08,18,17,03,30.90
2016,08,18,17,04,30.90
2016,08,18,17,05,31.00
2016,08,18,17,06,31.10
2016,08,18,17,07,31.10
2016,08,18,17,08,31.10
2016,08,18,17,09,31.00
2016,08,18,17,10,31.00
2016,08,18,17,11,31.10
2016,08,18,17,12,31.00
2016,08,18,17,13,31.00
2016,08,18,17,14,31.00
2016,08,18,17,15,31.00
2016,08,18,17,16,31.10
2016,08,18,17,17,31.20
2016,08,18,17,18,31.20
2016,08,18,17,19,31.30